Location: *
(58.9872°N, 27.7302°E)
Time: 08:52:23
(UTC+00:00)

Daily predictions for brighter satellites

Satellite Brightness Start Highest point End
(mag) Time Altitude Azimuth Time Altitude Azimuth Time Altitude Azimuth
CZ-2C R/B 3.7 13:58:59 10° S 14:03:36 43° W 14:08:08 10° NNW
Cosmos 1812 4.5 14:02:42 10° ESE 14:04:57 15° E 14:07:11 10° NE
Lacrosse 4 Rocket 2.7 14:01:36 10° WNW 14:04:57 24° N 14:08:22 10° NE
CZ-4 R/B 3.2 14:04:01 10° ENE 14:05:21 12° NE 14:06:41 10° NNE
Cosmos 1484 Rocket 3.0 14:01:35 10° SSE 14:05:36 85° WSW 14:09:39 10° NNW
Cosmos 1500 3.8 14:02:22 10° N 14:05:52 33° ENE 14:09:18 10° SE
SAR-Lupe-1 4.1 14:04:40 10° NNE 14:08:18 83° ESE 14:11:54 10° SSW
Meteor 1-31 Rocket 4.0 14:05:05 10° S 14:08:48 46° W 14:12:36 10° NNW
Tsikada Rocket 4.1 14:03:17 10° S 14:09:42 81° E 14:16:05 10° NNE
Cosmos 1315 Rocket 3.5 14:06:30 10° SSE 14:10:15 38° E 14:14:03 10° NNE
CZ-4B R/B 3.9 14:07:09 10° S 14:10:38 45° W 14:14:14 10° NNW
Cosmos 1151 Rocket 3.8 14:09:13 10° SSW 14:13:30 53° WNW 14:17:47 10° N
Cosmos 1400 Rocket 2.8 14:10:30 10° SSW 14:14:34 84° ESE 14:18:36 10° NNE
ISS -0.3 14:16:08 10° SW 14:17:17 11° SSW 14:18:27 10° S
Cosmos 1269 Rocket 4.3 14:13:06 10° S 14:18:16 54° ESE 14:23:27 10° NE
Cosmos 1048 Rocket 4.1 14:13:34 10° SSW 14:18:58 89° NW 14:24:23 10° NNE
Meteor 1-11 Rocket 3.9 14:13:10 10° NNW 14:19:05 59° ENE 14:24:59 10° SSE
Cosmos 2297 3.8 14:14:24 10° NW 14:20:03 54° NE 14:25:38 10° ESE
NOSS 2-2 (D) 3.5 14:21:29 10° SW 14:25:21 86° SSE 14:30:03 11° ENE
Cosmos 1602 4.3 14:22:50 10° NNW 14:26:42 62° W 14:30:33 10° S
Cosmos 1515 Rocket 4.3 14:25:34 10° SSW 14:29:49 53° WNW 14:34:06 10° N
Cosmos 1441 Rocket 4.2 14:26:40 10° N 14:29:55 25° ENE 14:33:07 10° ESE
Okean O Rocket 1.6 14:26:30 10° SSE 14:30:51 89° WSW 14:35:15 10° NNW
Cosmos 2237 4.3 14:25:13 10° SSW 14:30:58 84° SE 14:36:45 10° NE
Cosmos 1707 Rocket 3.9 14:27:10 10° SSE 14:31:28 48° E 14:35:48 10° NNE
COSMOS 2455 3.0 14:26:20 10° WSW 14:32:23 73° NW 14:38:12 11° NE
NOSS 8 (H) 4.3 14:30:07 10° WSW 14:33:13 86° NNW 14:36:17 13° ENE
Cosmos 2279 Rocket 4.1 14:27:51 10° NNW 14:34:11 89° WSW 14:40:27 10° S
Meteor 1-26 Rocket 4.3 14:29:50 10° SSW 14:35:36 89° WNW 14:41:14 10° NNE
NOSS 3-1 (C) 3.9 14:29:58 10° WNW 14:36:32 65° NNE 14:44:21 10° E
Meteor 1-28 Rocket 3.1 14:33:38 10° NNE 14:37:26 79° ESE 14:41:13 10° SSW
H-2A R/B 3.1 14:34:27 10° SE 14:37:54 39° ENE 14:41:23 10° N
FENGYUN 3A 4.1 14:33:34 10° S 14:38:59 68° WSW 14:44:24 10° NNW
Landsat 5 3.6 14:35:08 10° NNE 14:39:05 74° WNW 14:43:08 10° SSW
Helios 1A Rocket 3.1 14:35:24 10° SSE 14:39:30 79° WSW 14:43:37 10° NNW
SL-16 R/B 3.5 14:33:49 10° NNE 14:39:36 43° NW 14:45:21 10° SW
Cosmos 2228 Rocket 3.7 14:36:23 10° SSW 14:40:56 63° WNW 14:45:31 10° N
COSMOS 2428 3.1 14:36:23 10° S 14:41:50 50° ESE 14:46:56 12° NE
Meteor 1-5 Rocket 4.2 14:36:15 10° NNW 14:41:54 88° ENE 14:47:19 10° SSE
Cosmos 1689 Rocket 2.6 14:39:30 11° NNE 14:42:22 42° E 14:45:16 10° S
Genesis I 3.6 14:40:02 10° WNW 14:43:57 67° SW 14:47:48 10° SE
Cosmos 1908 Rocket 3.9 14:39:58 10° N 14:44:12 41° ENE 14:48:22 10° SE
USA 229 DEB 3.8 14:39:27 10° WNW 14:46:25 67° NNE 14:53:47 10° E
USA 229 3.8 14:39:34 10° WNW 14:46:31 67° NNE 14:53:51 10° E
Cosmos 2251 Rocket 4.3 14:42:18 10° SSE 14:47:01 34° ESE 14:51:03 13° NE
USA 267 4.2 14:41:09 10° SE 14:47:30 51° SSW 14:53:52 10° WNW
Elektron 3 4.1 14:45:36 10° WNW 14:48:33 72° NNE 14:53:03 10° E
Cosmos 2344 4.1 14:41:29 10° WNW 14:49:41 71° NNE 15:00:38 10° E
Cosmos 1666 3.0 14:46:29 10° N 14:50:05 40° ENE 14:53:38 10° SE
COSMO-SKYMED 1 4.5 14:51:41 12° E 14:51:41 12° E 14:52:53 10° ESE
CZ-4B R/B 1.5 14:47:58 10° NNE 14:51:31 89° ESE 14:55:01 10° SSW
NOSS 3-1 (A) 3.9 14:45:08 10° WNW 14:51:40 64° N 14:59:18 11° E
Okean-O 3.0 14:48:23 10° SE 14:52:34 42° ENE 14:56:47 10° N
Envisat 3.3 14:48:06 10° SE 14:52:54 44° ENE 14:57:44 10° N
NOAA 12 4.2 14:48:10 10° SE 14:53:16 51° ENE 14:58:23 10° NNW
NOSS 3-4 (A) 3.6 14:47:39 10° SW 14:53:43 68° SE 14:59:12 15° ENE
NOSS 3-4 (C) 3.6 14:47:45 10° SW 14:53:49 68° SE 14:59:18 15° ENE
H-2A R/B 3.3 14:50:52 10° N 14:54:38 35° WNW 14:58:23 10° SW
Uosat 12 SS-18 rocket 4.4 14:49:15 10° WNW 14:54:45 67° NNE 14:59:20 10° ESE
RESURS DK-1 2.8 14:51:32 10° SSW 14:55:30 46° ESE 14:58:22 17° NE
CZ-4B R/B 3.8 14:50:21 10° S 14:55:40 61° WSW 15:01:08 10° NNW
Cosmos 1992 Rocket 4.5 14:50:29 10° NW 14:55:41 66° WSW 15:00:52 10° SSE
Cosmos 2333 4.3 14:50:20 10° SSW 14:56:04 77° SE 15:01:15 13° NE
Cosmos 2278 Rocket 3.2 14:52:32 10° NW 14:58:01 50° WSW 15:03:27 10° S
Cosmos 1939 Rocket 4.4 14:59:10 16° NE 14:59:10 16° NE 15:01:14 10° NNE
Okean 1-7 4.4 14:56:11 10° SE 14:59:13 19° E 15:00:04 18° ENE
Cosmos 1606 4.3 14:56:14 10° SW 14:59:42 33° WNW 15:03:13 10° N
Feng Yun 1-1 Rocket 4.1 14:54:54 10° SSE 15:00:17 79° ENE 15:05:45 10° NNW
Cosmos 2322 3.7 14:55:28 10° SW 15:01:12 89° ESE 15:06:13 14° NE
Nadezhda 4 Rocket 4.2 14:55:40 10° SSE 15:01:42 49° E 15:07:43 10° NNE
NOSS 2-2 (C) 3.7 14:59:12 10° WSW 15:03:10 70° NNW 15:06:43 18° ENE
Cosmos 1536 2.7 14:59:52 10° N 15:03:56 75° ENE 15:07:57 10° SSE
YAOGAN 1 3.5 15:00:30 10° ESE 15:04:09 27° NE 15:07:48 10° N
Cosmos 2360 Rocket 2.5 14:59:46 10° SW 15:05:25 65° NW 15:10:26 14° NE
Cosmos 1733 Rocket 3.4 15:01:43 10° NNW 15:06:05 69° W 15:10:27 10° S
Cosmos 2369 Rocket 2.5 15:04:14 10° NW 15:09:40 47° NE 15:15:07 10° ESE
H-2A R/B 3.7 15:10:42 14° NE 15:10:42 14° NE 15:12:53 10° N
Cosmos 1980 Rocket 3.5 15:07:43 10° WNW 15:12:39 29° NNW 15:16:35 14° NE
Lacrosse 5 rocket 2.4 15:14:06 10° SSW 15:17:54 33° SSE 15:19:56 20° ESE
AQUARIUS 4.2 15:14:31 10° SSE 15:19:02 89° WSW 15:23:35 10° NNW
SMAP 3.1 15:14:28 10° SSE 15:19:07 84° WSW 15:23:50 10° NNW
FengYun 1-2 T 4.3 15:14:24 10° SE 15:19:44 55° ENE 15:25:09 10° NNW
Cosmos 921 Rocket 2.9 15:15:32 10° NNW 15:19:49 77° ENE 15:24:09 10° SSE
Cosmos 1656 Rocket 4.3 15:15:55 10° NW 15:20:54 35° NNE 15:23:40 22° E
SL-16 R/B 3.4 15:17:09 10° SSE 15:21:23 22° ESE 15:22:36 21° E
Cosmos 1743 3.1 15:17:48 10° N 15:21:29 40° ENE 15:25:10 10° SE
IRS-1C Rocket 4.3 15:17:15 10° SSE 15:22:33 74° WSW 15:27:50 10° NNW
Cosmos 1867 3.7 15:17:13 10° NW 15:22:44 80° SW 15:28:11 10° SE
SL-4 R/B 3.5 15:19:57 10° SW 15:23:10 27° S 15:25:41 15° ESE
Cosmos 2026 Rocket 4.4 15:18:01 10° SSE 15:23:26 35° E 15:28:53 10° NNE
Meteor 2-6 Rocket 4.2 15:18:27 10° SSW 15:23:52 85° WNW 15:29:25 10° NNE
Aureole 1 Rocket 4.0 15:21:49 10° SSE 15:23:33 19° ESE 15:23:33 19° ESE
NOSS 2-2 (E) 4.0 15:20:17 10° W 15:24:22 59° NNW 15:27:23 24° ENE
YAOGAN 6 2.9 15:21:15 10° SE 15:24:39 42° ENE 15:28:07 10° N
NOSS 0 Rocket 4.1 15:20:22 10° SSW 15:26:24 54° ESE 15:30:33 21° NE
Cosmos 2237 Rocket 2.5 15:24:32 10° S 15:29:59 48° ESE 15:33:14 23° NE
CORIOLIS 4.3 15:24:42 10° SSE 15:30:10 81° WSW 15:35:40 10° NNW
ALOS 4.4 15:26:21 10° SSW 15:30:24 29° W 15:34:28 10° NNW
ATLAS 2AS CENTAUR R/B 3.1 15:23:30 10° WSW 15:31:36 83° NNW 15:37:09 22° ENE
Cosmos 2333 Rocket 2.2 15:27:21 10° SW 15:33:08 88° NW 15:37:20 20° NE
Cosmos 2322 Rocket 3.2 15:28:30 10° W 15:33:44 37° NNW 15:37:43 16° NNE
Cosmos 1782 4.4 15:31:21 10° SW 15:35:01 34° WNW 15:38:41 10° N
Ariane Rocket 3.7 15:34:49 26° E 15:36:13 30° NE 15:40:36 10° N
SeaSat 1 3.1 15:36:21 28° ENE 15:37:59 35° NNE 15:42:27 10° NNW
Cosmos 1782 Rocket 3.4 15:34:53 10° N 15:39:16 71° ENE 15:43:36 10° SSE
Cosmos 2219 Rocket 2.2 15:33:55 10° SW 15:39:34 83° NW 15:43:30 21° NE
CZ-4 R/B 1.4 15:35:51 10° SE 15:39:36 50° ENE 15:43:21 10° N
Cosmos 1812 2.7 15:36:18 10° SSW 15:40:11 85° WNW 15:43:12 16° NNE
Cosmos 1943 Rocket 2.1 15:34:40 10° NW 15:40:22 69° NE 15:45:58 10° SE
Cosmos 1697 Rocket 4.1 15:35:59 10° WNW 15:40:34 24° N 15:42:57 19° NNE
Cosmos 1763 Rocket 4.0 15:38:49 10° NNW 15:43:29 35° NE 15:44:41 31° ENE
SL-16 R/B 3.4 15:38:28 10° W 15:43:36 33° NNW 15:47:12 18° NNE
Lacrosse 4 Rocket 2.2 15:40:57 10° NW 15:44:41 31° NNE 15:45:11 30° NE
Cosmos 1315 Rocket 4.3 15:43:08 10° SW 15:46:52 35° WNW 15:50:40 10° N
Okean 2 Rocket 3.3 15:43:24 10° N 15:47:45 47° ENE 15:52:06 10° SE
Sich 1 Rocket 3.4 15:45:15 10° N 15:49:41 70° ENE 15:54:04 10° SSE
Cosmos 405 Rocket 4.1 15:48:24 10° N 15:50:07 23° NNE 15:50:07 23° NNE
USA 215 3.7 15:48:56 26° E 15:52:26 49° SSE 15:58:44 10° SW
Cosmos 1862 Rocket 3.7 15:49:34 10° SSW 15:53:57 73° WNW 15:57:53 13° N
PSLV R/B 4.0 15:53:14 18° NNE 15:56:19 77° WNW 16:00:26 10° SSW
Cosmos 1627 Rocket 4.5 15:50:26 10° S 15:56:23 58° E 16:02:26 10° NNE
Cosmos 1975 2.8 15:52:25 10° N 15:56:24 58° ENE 16:00:21 10° SSE
Exosat Rocket 3.4 15:51:37 10° SSW 15:56:38 78° ESE 15:59:22 29° NE
Cosmos 1703 Rocket 3.6 15:52:59 10° S 15:57:23 58° E 15:59:10 33° NE
CSL-04 Rocket 3.5 15:53:58 10° SSE 15:59:13 69° ENE 16:04:33 10° NNW
Cosmos 2195 Rocket 4.4 15:54:28 10° S 16:00:40 66° E 16:06:56 10° NNE
Cosmos 1980 3.6 15:55:49 10° SSW 16:01:27 74° ESE 16:04:13 32° NE
Cosmos 1441 Rocket 4.0 16:02:22 10° NNW 16:06:08 51° W 16:09:49 10° S
Cosmos 1655 Rocket 4.4 16:01:11 10° SSE 16:06:52 38° E 16:08:04 35° ENE
COBE Rocket 3.8 16:05:44 16° NNE 16:09:26 82° WNW 16:14:07 10° SSW
Meteor 1-27 Rocket 4.0 16:04:54 10° SSW 16:10:43 72° WNW 16:16:40 10° NNE
Cosmos 2263 4.1 16:05:16 10° NW 16:11:06 72° NE 16:14:09 29° SE
Cosmos 1092 Rocket 3.9 16:05:06 10° S 16:11:24 84° ESE 16:17:40 10° NNE
Cosmos 614 Rocket 4.2 16:07:07 10° S 16:11:54 43° ESE 16:11:57 43° ESE
Cosmos 841 Rocket 4.1 16:07:25 10° NNW 16:12:04 36° NE 16:12:04 36° NE
NOAA 15 4.5 16:08:04 10° SSE 16:13:20 87° ENE 16:18:39 10° NNW
Cosmos 2242 Rocket 3.9 16:11:10 10° SSW 16:15:45 71° WNW 16:19:02 19° N
NOSS 2-2 (D) 4.1 16:12:10 10° W 16:16:20 52° N 16:17:27 43° NE
CSL-04 Debris 4.1 16:12:48 10° SSE 16:18:16 89° ENE 16:23:44 10° NNW
COSMOS 2455 3.6 16:13:27 10° W 16:19:09 41° NNW 16:21:21 31° NNE
ARGOS 4.3 16:22:40 27° NNE 16:22:40 27° NNE 16:25:50 10° N
IRS-1A Rocket 4.4 16:18:51 31° SE 16:21:33 57° ENE 16:27:20 10° NNW
CZ-4B R/B 4.3 16:21:11 10° NNW 16:23:24 16° NW 16:25:35 10° W
COSMOS 2428 3.3 16:20:34 10° WSW 16:26:09 54° NW 16:28:56 29° NNE
NOSS 3-1 (C) 4.0 16:20:53 10° WNW 16:27:52 78° SW 16:33:24 23° SE
COSMO-SKYMED 1 2.8 16:28:54 53° SSE 16:28:54 53° SSE 16:32:27 10° S
Cosmos 192 4.4 16:23:36 10° NNW 16:28:18 55° NE 16:28:18 55° NE
Cosmos 2251 Rocket 3.9 16:23:49 10° SW 16:29:05 63° NW 16:31:33 31° NNE
Okean-O 4.1 16:25:00 10° SSW 16:29:09 38° W 16:33:18 10° NNW
Meteor 2-9 Rocket 4.3 16:26:02 10° NNW 16:31:58 85° WSW 16:37:48 10° S
Envisat 4.1 16:27:08 10° S 16:32:00 44° W 16:36:53 10° NNW
Cosmos 1939 Rocket 4.2 16:35:04 29° NNW 16:35:04 29° NNW 16:37:04 10° NNW
Cosmos 1140 Rocket 4.2 16:28:44 10° S 16:32:11 36° SSE 16:32:11 36° SSE
RESURS DK-1 3.2 16:29:39 10° WSW 16:33:37 43° NW 16:34:16 39° NNW
Cosmos 1300 Rocket 3.6 16:29:30 10° NNW 16:33:10 62° N 16:33:10 62° N
Cosmos 540 Rocket 4.2 16:29:04 10° NNW 16:32:58 37° NNE 16:32:58 37° NNE
Cosmos 468 Rocket 3.8 16:29:37 10° NNW 16:34:49 73° NE 16:35:29 64° ESE
Okean 1-7 3.0 16:31:53 10° SSW 16:36:15 81° WNW 16:36:59 61° N
S3M 3.9 16:31:02 10° NNW 16:37:19 89° E 16:43:30 10° S
USA 229 DEB 4.0 16:30:36 10° WNW 16:37:39 72° SW 16:42:15 25° SE
USA 229 4.0 16:30:42 10° WNW 16:37:46 72° SW 16:42:17 26° SE
Meteor 1-18 Rocket 4.1 16:33:26 10° S 16:39:05 72° E 16:40:34 49° NE
YAOGAN 1 2.9 16:35:41 10° S 16:39:59 63° WSW 16:44:19 10° NNW
Cosmos 407 Rocket 3.4 16:36:59 10° SSW 16:41:58 65° SE 16:41:58 65° SE
NOAA 11 4.2 16:37:36 10° SSE 16:43:05 80° WSW 16:48:38 10° NNW
NOSS 3-1 (A) 3.9 16:36:08 10° WNW 16:43:07 84° SSW 16:46:47 36° SE
Cosmos 2208 Rocket 4.2 16:38:52 10° NNW 16:43:53 57° NNE 16:43:53 57° NNE
NOSS 3-4 (A) 3.7 16:38:33 10° W 16:44:48 66° NNW 16:46:39 47° NE
NOSS 3-4 (C) 3.7 16:38:40 10° W 16:44:54 66° NNW 16:46:44 47° NE
H-2A R/B 3.4 16:51:20 24° N 16:51:20 24° N 16:53:28 10° N
Cosmos 1428 Rocket 4.4 16:42:38 10° SSW 16:48:52 85° WNW 16:55:13 10° NNE
Cosmos 1553 Rocket 4.4 16:42:49 10° NNW 16:49:07 67° W 16:55:28 10° S
Cosmos 2360 Rocket 3.6 16:45:27 10° W 16:50:26 30° NNW 16:52:12 25° N
Cosmos 2369 Rocket 2.6 16:48:24 10° NW 16:53:56 59° WSW 16:57:15 24° S
NOSS 2-2 (C) 4.3 16:50:02 10° WNW 16:54:07 52° N 16:54:07 52° N
Lacrosse 5 rocket 2.3 16:52:36 10° WSW 16:55:35 42° SW 16:55:35 42° SW
Cosmos 1980 Rocket 3.6 16:53:38 10° NW 16:58:20 26° N 16:58:20 26° N
Cosmos 2151 Rocket 4.2 16:54:25 10° NNW 16:57:48 50° NW 16:57:48 50° NW
Cosmos 1570 Rocket 4.1 16:56:14 10° NNW 17:00:48 65° N 17:00:48 65° N
SL-4 R/B 3.8 16:58:50 10° WSW 17:01:17 24° SSW 17:01:17 24° SSW
Cosmos 2344 4.3 16:55:53 10° WNW 17:04:44 75° SW 17:12:24 26° SE
SL-16 R/B 2.1 16:59:03 10° SSW 17:04:31 78° SSE 17:04:31 78° SSE
Cosmos 1656 Rocket 3.5 16:59:36 10° NW 17:05:05 87° SW 17:05:05 87° SW
Cosmos 2026 Rocket 4.3 17:02:29 10° SSW 17:08:27 62° WNW 17:14:32 10° N
NOSS 0 Rocket 4.4 17:06:51 10° WSW 17:13:00 56° NW 17:14:34 44° N
Cosmos 2237 Rocket 2.7 17:08:29 10° WSW 17:14:05 55° NW 17:15:04 48° N
CZ-4 R/B 3.5 17:11:39 10° SSW 17:14:53 25° W 17:18:07 10° NW
Ariane Rocket 3.2 17:15:01 69° W 17:15:01 69° W 17:19:59 10° NNW
SeaSat 1 2.8 17:16:07 60° NW 17:16:07 60° NW 17:20:12 10° NW
Cosmos 2333 Rocket 3.4 17:12:49 10° W 17:18:07 36° NNW 17:19:21 33° N
Cosmos 2322 Rocket 3.7 17:14:42 10° WNW 17:19:19 25° N 17:19:32 25° N
Cosmos 2315 Rocket 3.9 17:13:21 10° NNW 17:19:46 90° SSW 17:20:13 79° SSE
ATLAS 2AS CENTAUR R/B 3.1 17:15:23 10° W 17:23:22 63° N 17:24:35 56° NE
Cosmos 1943 Rocket 3.6 17:18:45 10° NW 17:23:51 35° WSW 17:27:53 15° S
Lacrosse 4 Rocket 3.3 17:19:40 10° NW 17:21:30 25° NW 17:21:30 25° NW
Cosmos 2219 Rocket 3.4 17:19:09 10° W 17:24:17 34° NNW 17:25:13 32° N
Cosmos 1763 Rocket 4.0 17:20:39 10° NW 17:24:44 54° WNW 17:24:44 54° WNW
Cosmos 1697 Rocket 4.1 17:21:10 10° NW 17:24:41 28° N 17:24:41 28° N
SL-16 R/B 3.8 17:24:42 10° NW 17:29:03 25° N 17:29:03 25° N
USA 215 3.2 17:36:17 73° SSW 17:36:17 73° SSW 17:42:35 10° WSW
Cosmos 1655 Rocket 4.4 17:46:07 10° SSW 17:52:20 60° WNW 17:53:06 56° NW
COSMOS 2455 4.1 18:00:33 10° WNW 18:04:29 34° NNW 18:04:29 34° NNW
COSMOS 2428 4.4 18:06:46 10° WNW 18:10:57 27° NNW 18:10:57 27° NNW
H-2A R/B 4.4 18:31:57 16° NNW 18:31:57 16° NNW 18:33:01 10° NNW
Cosmos 2360 Rocket 4.3 18:31:29 10° NW 18:33:57 20° NNW 18:33:57 20° NNW
Cosmos 1980 Rocket 4.4 18:38:21 10° NW 18:40:06 19° NNW 18:40:06 19° NNW
SL-16 R/B 4.3 18:44:07 10° W 18:46:25 23° W 18:46:25 23° W
Cosmos 2237 Rocket 4.4 18:54:29 10° WNW 18:56:54 21° NW 18:56:54 21° NW
ATLAS 2AS CENTAUR R/B 4.0 19:07:10 10° WNW 19:12:00 40° NW 19:12:00 40° NW
